Le nostre stazioni meteo in Italia

Pubblicità
Il mio iltempo24.it
Bolzano, Italia (16020): Temperatura & dewpoint: 05.12.2018 02:00:00 - 11.12.2018 02:00:00 (CET)Bolzano, Italia (16020): velocità del vento: 05.12.2018 02:00:00 - 11.12.2018 02:00:00 (CET)Bolzano, Italia (16020): direzione del vento: 05.12.2018 02:00:00 - 11.12.2018 02:00:00 (CET)Bolzano, Italia (16020): reduced air pressure: 05.12.2018 02:00:00 - 11.12.2018 02:00:00 (CET)Bolzano, Italia (16020): visibility: 05.12.2018 02:00:00 - 11.12.2018 02:00:00 (CET)Bolzano, Italia (16020): precipitazioni: 05.12.2018 02:00:00 - 11.12.2018 02:00:00 (CET)
Data & Tempo tt [°C] td [°C] ff [km/h] ff [kn] dd ppp [hPa] vv [km] rr [mm]
11.12.2018 02:00:00 - - - - - - - -
11.12.2018 01:00:00 3,2 -2,8 5 3 NO 1019,7 - 0,0
11.12.2018 00:00:00 - - - - - - - -
10.12.2018 23:00:00 5,0 -6,0 4 2 - - 10 -
10.12.2018 22:00:00 5,6 -5,6 5 3 - 1019,8 10 -
10.12.2018 21:00:00 5,0 -7,0 13 7 NNE - 10 -
10.12.2018 20:00:00 5,0 -5,0 4 2 - - 10 -
10.12.2018 19:00:00 5,3 -4,9 8 4 - 1018,8 10 0,0
10.12.2018 18:00:00 8,0 -6,0 15 8 NNO - 10 -
10.12.2018 17:00:00 10,0 -7,0 8 4 NNE - 10 -
10.12.2018 16:00:00 10,7 -7,5 13 7 N 1017,5 10 -
10.12.2018 15:00:00 12,0 -7,0 22 12 NNO - 10 -
10.12.2018 14:00:00 13,0 -9,0 21 11 NNE - 10 -
10.12.2018 13:00:00 12,7 -7,3 11 6 NE 1016,3 10 0,0
10.12.2018 12:00:00 12,0 -3,0 9 5 NNO - 10 -
10.12.2018 11:00:00 8,0 2,0 4 2 S - 10 -
10.12.2018 10:00:00 5,2 1,2 0 0 N 1016,8 10 -
10.12.2018 09:00:00 3,0 1,0 4 2 ESE - 10 -
10.12.2018 08:00:00 1,0 0,0 5 3 E - 10 -
10.12.2018 07:00:00 1,5 0,2 8 4 O 1015,6 10 0,0
10.12.2018 06:00:00 - - - - - - - -
10.12.2018 05:00:00 - - - - - - - -
10.12.2018 04:00:00 5,1 2,3 11 6 N 1014,0 - -
10.12.2018 03:00:00 - - - - - - - -
10.12.2018 02:00:00 - - - - - - - -
10.12.2018 01:00:00 1,7 0,4 4 2 SE 1014,4 - 0,0
10.12.2018 00:00:00 - - - - - - - -
09.12.2018 23:00:00 3,0 2,0 5 3 - - 10 -
09.12.2018 22:00:00 3,0 1,6 0 0 N 1012,8 10 -
09.12.2018 21:00:00 3,0 1,0 8 4 NO - 10 -
09.12.2018 20:00:00 - - - - - - - -
09.12.2018 19:00:00 2,7 1,1 2 1 - 1010,6 10 0,0
09.12.2018 18:00:00 3,0 1,0 2 1 - - 10 -
09.12.2018 17:00:00 2,0 0,0 4 2 - - 10 -
09.12.2018 16:00:00 4,2 0,5 2 1 - 1009,3 10 -
09.12.2018 15:00:00 8,0 1,0 5 3 - - 10 -
09.12.2018 14:00:00 7,0 -1,0 4 2 - - 10 -
09.12.2018 13:00:00 7,1 -1,3 2 1 - 1009,5 10 0,0
09.12.2018 12:00:00 5,0 -1,0 4 2 - - 10 -
09.12.2018 11:00:00 4,0 -1,0 5 3 - - 10 -
09.12.2018 10:00:00 1,4 -1,0 2 1 - 1010,5 10 -
09.12.2018 09:00:00 -1,0 -1,0 2 1 - - 10 -
09.12.2018 08:00:00 -1,0 -2,0 2 1 - - 10 -
09.12.2018 07:00:00 -2,0 -3,2 5 3 - 1010,5 10 0,0
09.12.2018 06:00:00 - - - - - - - -
09.12.2018 05:00:00 - - - - - - - -
09.12.2018 04:00:00 -1,6 -3,7 5 3 NNE 1013,7 - -
09.12.2018 03:00:00 - - - - - - - -
09.12.2018 02:00:00 - - - - - - - -
09.12.2018 01:00:00 -2,3 -3,6 5 3 S 1015,5 - 0,0
09.12.2018 00:00:00 - - - - - - - -
08.12.2018 23:00:00 -1,0 -3,0 4 2 - - 10 -
08.12.2018 22:00:00 -0,1 -2,5 4 2 - 1016,5 10 -
08.12.2018 21:00:00 1,0 -2,0 0 0 N - 10 -
08.12.2018 20:00:00 3,0 -1,0 4 2 - - 10 -
08.12.2018 19:00:00 4,7 -1,7 2 1 - 1015,6 10 0,0
08.12.2018 18:00:00 6,0 -1,0 11 6 SE - 10 -
08.12.2018 17:00:00 6,0 -2,0 5 3 - - 10 -
08.12.2018 16:00:00 8,6 -1,1 8 4 NNO 1014,0 10 -
08.12.2018 15:00:00 14,0 -4,0 5 3 O - 10 -
08.12.2018 14:00:00 14,0 -4,0 4 2 NNO - 10 -
08.12.2018 13:00:00 14,2 -3,3 2 1 - 1012,7 10 0,0
08.12.2018 12:00:00 11,0 0,0 11 6 ONO - 10 -
08.12.2018 11:00:00 10,0 2,0 9 5 NNO - 10 -
08.12.2018 10:00:00 7,7 1,8 5 3 - 1014,0 10 -
08.12.2018 09:00:00 6,0 3,0 11 6 ONO - 10 -
08.12.2018 08:00:00 5,0 3,0 5 3 O - 10 -
08.12.2018 07:00:00 2,9 2,3 5 3 SSE 1012,7 10 -
08.12.2018 06:00:00 - - - - - - - -
08.12.2018 05:00:00 - - - - - - - -
08.12.2018 04:00:00 4,4 3,6 4 2 N 1011,8 - -
08.12.2018 03:00:00 - - - - - - - -
08.12.2018 02:00:00 - - - - - - - -
08.12.2018 01:00:00 4,1 3,2 2 1 OSO 1012,0 - 0,0
08.12.2018 00:00:00 - - - - - - - -
07.12.2018 23:00:00 5,0 4,0 0 0 N - 10 -
07.12.2018 22:00:00 3,7 2,6 4 2 - 1014,8 10 -
07.12.2018 21:00:00 2,0 1,0 2 1 - - 10 -
07.12.2018 20:00:00 1,0 1,0 0 0 N - 10 -
07.12.2018 19:00:00 2,5 1,6 5 3 - 1016,2 10 0,0
07.12.2018 18:00:00 4,0 2,0 4 2 - - 10 -
07.12.2018 17:00:00 6,0 4,0 0 0 N - 10 -
07.12.2018 16:00:00 7,9 3,8 4 2 O 1017,5 10 -
07.12.2018 15:00:00 10,0 4,0 4 2 - - 10 -
07.12.2018 14:00:00 9,0 4,0 4 2 - - 10 -
07.12.2018 13:00:00 8,8 3,3 4 2 O 1020,4 20 0,0
07.12.2018 12:00:00 7,0 4,0 0 0 N - 10 -
07.12.2018 11:00:00 4,0 4,0 0 0 N - 10 -
07.12.2018 10:00:00 2,6 2,1 0 0 N 1024,8 10 -
07.12.2018 09:00:00 0,0 -1,0 2 1 - - 10 -
07.12.2018 08:00:00 -1,0 -1,0 2 1 - - 10 -
07.12.2018 07:00:00 0,2 0,1 0 0 N 1025,1 10 0,0
07.12.2018 06:00:00 - - - - - - - -
07.12.2018 05:00:00 - - - - - - - -
07.12.2018 04:00:00 -0,1 -0,7 2 1 SSE 1026,1 - -
07.12.2018 03:00:00 - - - - - - - -
07.12.2018 02:00:00 - - - - - - - -
07.12.2018 01:00:00 0,4 0,1 2 1 SSE 1026,5 - 0,0
07.12.2018 00:00:00 - - - - - - - -
06.12.2018 23:00:00 2,0 1,0 4 2 - - 10 -
06.12.2018 22:00:00 2,1 1,6 5 3 - 1026,8 10 -
06.12.2018 21:00:00 1,0 1,0 2 1 - - 10 -
06.12.2018 20:00:00 3,0 2,0 4 2 - - 10 -
06.12.2018 19:00:00 1,7 0,7 0 0 N 1025,7 10 0,0
06.12.2018 18:00:00 5,0 4,0 8 4 N - 10 -
06.12.2018 17:00:00 7,0 4,0 4 2 - - 10 -
06.12.2018 16:00:00 6,7 3,5 0 0 N 1023,7 10 -
06.12.2018 15:00:00 10,0 3,0 0 0 N - 10 -
06.12.2018 14:00:00 9,0 5,0 0 0 N - 10 -
06.12.2018 13:00:00 9,4 3,9 4 2 S 1023,7 15 0,0
06.12.2018 12:00:00 7,0 4,0 0 0 N - 10 -
06.12.2018 11:00:00 7,0 4,0 0 0 N - 10 -
06.12.2018 10:00:00 5,6 4,2 4 2 - 1025,3 10 -
06.12.2018 09:00:00 5,0 3,0 2 1 - - 10 -
06.12.2018 08:00:00 4,0 3,0 4 2 - - 10 -
06.12.2018 07:00:00 3,9 3,2 4 2 - 1024,8 10 -
06.12.2018 06:00:00 - - - - - - - -
06.12.2018 05:00:00 - - - - - - - -
06.12.2018 04:00:00 3,7 2,5 2 1 E 1025,2 - -
06.12.2018 03:00:00 - - - - - - - -
06.12.2018 02:00:00 - - - - - - - -
06.12.2018 01:00:00 2,8 1,5 2 1 N 1026,4 - 0,0
06.12.2018 00:00:00 - - - - - - - -
05.12.2018 23:00:00 2,0 1,0 0 0 N - 10 -
05.12.2018 22:00:00 2,1 1,0 2 1 - 1027,4 10 -
05.12.2018 21:00:00 2,0 1,0 4 2 - - 10 -
05.12.2018 20:00:00 2,0 1,0 0 0 N - 10 -
05.12.2018 19:00:00 2,3 0,6 5 3 - 1027,0 10 -
05.12.2018 18:00:00 5,0 3,0 4 2 - - 10 -
05.12.2018 17:00:00 6,0 3,0 0 0 N - 10 -
05.12.2018 16:00:00 6,6 2,4 0 0 N 1025,6 10 -
05.12.2018 15:00:00 10,0 2,0 0 0 N - 10 -
05.12.2018 14:00:00 10,0 2,0 4 2 - - 10 -
05.12.2018 13:00:00 10,0 0,8 0 0 N 1026,0 10 -
05.12.2018 12:00:00 9,0 3,0 0 0 N - 10 -
05.12.2018 11:00:00 7,0 3,0 0 0 N - 10 -
05.12.2018 10:00:00 4,8 2,1 0 0 N 1028,4 10 -
05.12.2018 09:00:00 -1,0 -1,0 0 0 N - 10 -
05.12.2018 08:00:00 -1,0 -1,0 0 0 N - 10 -
05.12.2018 07:00:00 -1,9 -2,6 0 0 N 1028,0 10 0,0
05.12.2018 06:00:00 - - - - - - - -
05.12.2018 05:00:00 - - - - - - - -
05.12.2018 04:00:00 -0,7 -1,8 2 1 ENE 1026,6 - -
05.12.2018 03:00:00 - - - - - - - -
05.12.2018 02:00:00 - - - - - - - -

tt = Temperatura
td = dewpoint
ff = velocità del vento
dd = direzione del vento
ppp = reduced air pressure
vv = visibility
rr = precipitazioni

Stazioni seguenti

WeatherPro
AMSI
MeteoEarth